ECHOSTAR 14 (36499 NORAD) Tracking and Keplerian Element Data

This shows tracking and keplerian element data for the satellite.

Feedback or suggestion? Click here.




ElementValue
Catalog36499
NameECHOSTAR 14
Epoch Orbit4155
Epoch Day34.67397575
Epoch Year2025
RAAN105.1586
Inclination0.0102
Eccentricity0.0001976
Argument of Perigee203.6455
Mean Anonmoly308.9951
Mean Motion1.00270748
Decay Rate5E-08
L11 36499U 10010A 25034.67397575 .00000005 00000+0 00000+0 0 9999
L22 36499 0.0102 105.1586 0001976 203.6455 308.9951 1.00270748 41559



Live tracking and technical data element details for ECHOSTAR 14 (NORAD 36499). ECHOSTAR 14 can be tracked NOW for your location showing map with azimuth and elevation plus other details from your city location.







IsCatalogInMostPopularTable: catalog: 36499, numindb: 364
Update: records affected: 1



GetName: 36499 ECHOSTAR 14

Hit Count: updated at: Thu, 15 May 2025 18:57:08 GMT